Change the Weather History Date:

Sunday, March 2, 2014

  Actual Average Record
Temperature  
Mean Temperature 34 °F -  
Max Temperature 35 °F 43 °F 66 °F (1972)
Min Temperature 32 °F 23 °F 5 °F (1980)
Degree Days  
Heating Degree Days 32    
Moisture  
Dew Point 21 °F    
Average Humidity 62    
Maximum Humidity 75    
Minimum Humidity 54    
Precipitation  
Precipitation 0.00 in - - ()
Sea Level Pressure  
Sea Level Pressure 30.02 in    
Wind  
Wind Speed 6 mph (WSW)    
Max Wind Speed 13 mph    
Max Gust Speed -    
Visibility 10 miles    
Events      
Averages and records for this station are not official NWS values.
T = Trace of Precipitation, MM = Missing Value Source: NWS Daily Summary

Daily Weather History Graph

Daily Weather History Graph

Search for Another Location

Airport or City:

Trip Planner

Search our weather history database for the weather conditions in past years. The results will help you decide how hot, cold, wet, or windy it might be!

Date:

Astronomy

Mar. 02, 2014 Rise Set
Actual Time 6:16 AM EST 5:34 PM EST
Civil Twilight 5:48 AM EST 6:02 PM EST
Nautical Twilight 5:16 AM EST 6:34 PM EST
Astronomical Twilight 4:43 AM EST 7:06 PM EST
Moon 6:43 AM EST 7:29 PM EST
Length of Visible Light 12h 13m
Length of Day
11h 18m
Waxing Crescent, 3% of the Moon is Illuminated
Mar 2
Waxing Crescent
Mar 8
First Quarter
Mar 16
Full
Mar 23
Last Quarter
Mar 30
New

Hourly Weather History & Observations

Time (EST) Temp. Windchill Dew Point Humidity Pressure Visibility Wind Dir Wind Speed Gust Speed Precip Events Conditions
12:52 AM 32.0 °F 25.6 °F 21.0 °F 64% 30.10 in 10.0 mi SW 6.9 mph - N/A   Clear
1:52 AM 32.0 °F 24.8 °F 19.9 °F 61% 30.08 in 10.0 mi SSW 8.1 mph - N/A   Clear
2:52 AM 32.0 °F 24.8 °F 21.0 °F 64% 30.06 in 10.0 mi SW 8.1 mph - N/A   Scattered Clouds
3:52 AM 33.1 °F 26.9 °F 21.0 °F 61% 30.05 in 10.0 mi SW 6.9 mph - N/A   Scattered Clouds
4:52 AM 33.1 °F 26.1 °F 19.9 °F 59% 30.06 in 10.0 mi SW 8.1 mph - N/A   Overcast
5:52 AM 34.0 °F 28.0 °F 19.0 °F 54% 30.05 in 10.0 mi SW 6.9 mph - N/A   Overcast
6:52 AM 34.0 °F 28.0 °F 19.9 °F 56% 30.05 in 10.0 mi WSW 6.9 mph - N/A   Overcast
7:52 AM 34.0 °F 27.2 °F 19.9 °F 56% 30.06 in 10.0 mi WSW 8.1 mph - N/A   Overcast
8:52 AM 35.1 °F 31.0 °F 19.9 °F 54% 30.05 in 10.0 mi SW 4.6 mph - N/A   Overcast
9:52 AM 35.1 °F 29.3 °F 19.9 °F 54% 30.07 in 10.0 mi West 6.9 mph - N/A   Overcast
10:52 AM 35.1 °F 30.1 °F 21.0 °F 57% 30.07 in 10.0 mi West 5.8 mph - N/A   Overcast
11:52 AM 35.1 °F 30.1 °F 21.9 °F 59% 30.04 in 9.0 mi West 5.8 mph - 0.00 in   Overcast
12:52 PM 35.1 °F 29.3 °F 21.0 °F 57% 30.00 in 10.0 mi WNW 6.9 mph - N/A   Overcast
1:52 PM 35.1 °F 31.0 °F 21.0 °F 57% 29.99 in 10.0 mi West 4.6 mph - N/A   Overcast
2:52 PM 35.1 °F 32.2 °F 21.0 °F 57% 29.99 in 10.0 mi SW 3.5 mph - N/A   Overcast
3:52 PM 35.1 °F - 21.0 °F 57% 29.99 in 10.0 mi Calm Calm - N/A   Overcast
4:52 PM 35.1 °F - 21.9 °F 59% 29.98 in 10.0 mi Calm Calm - N/A   Overcast
5:52 PM 33.1 °F - 21.9 °F 64% 29.99 in 10.0 mi Calm Calm - N/A   Overcast
6:52 PM 32.0 °F - 21.9 °F 66% 30.00 in 10.0 mi Calm Calm - N/A   Overcast
7:52 PM 32.0 °F - 23.0 °F 69% 30.00 in 10.0 mi Calm Calm - N/A   Overcast
8:52 PM 32.0 °F 28.7 °F 24.1 °F 73% 29.99 in 10.0 mi ESE 3.5 mph - N/A   Overcast
9:52 PM 32.0 °F - 24.1 °F 73% 29.98 in 10.0 mi Calm Calm - N/A   Overcast
10:52 PM 32.0 °F 27.5 °F 24.1 °F 73% 29.97 in 10.0 mi North 4.6 mph - N/A   Overcast
11:37 PM 32.0 °F 23.6 °F 25.0 °F 75% 29.97 in 10.0 mi North 10.4 mph - N/A   Overcast
11:52 PM 32.0 °F 22.5 °F 23.0 °F 69% 29.97 in 10.0 mi North 12.7 mph - N/A   Overcast